When you browse on this site, cookies collect data to enhance your experience and personalize the content and advertising you see.
Visit our Privacy Policy to learn more. By continuing to use the site, you agree to this use of cookies and data.
  • In Hungary
  • List of Countries
  • For 7 days
  • Water Temperature
  • Weather Map
  • News
  • Weather Widgets
  • user-avatar
    Login

    Hourly Weather Nehrovo

    Today, 9 December, Monday

    Time Temperature Precipitation Wind Pressure Humidity
    00:00 +3°C° 0 mm 4 mps 742 mmHg 94%
    01:00 +3°C° 0 mm 4 mps 742 mmHg 94%
    02:00 +3°C° 0 mm 1 mps 741 mmHg 94%
    03:00 +2°C° 0 mm 2 mps 741 mmHg 96%
    04:00 +1°C° 0 mm 3 mps 741 mmHg 96%
    05:00 +1°C° 0 mm 3 mps 741 mmHg 93%
    06:00 +3°C° 0 mm 2 mps 740 mmHg 91%
    07:00 +2°C° 0 mm 3 mps 741 mmHg 89%
    08:00 +2°C° 0 mm 3 mps 741 mmHg 90%
    09:00 +2°C° 0 mm 3 mps 741 mmHg 90%
    10:00 +3°C° 0 mm 3 mps 740 mmHg 90%
    11:00 +3°C° 0.6 mm 4 mps 740 mmHg 100%
    12:00 +3°C° 0.6 mm 4 mps 740 mmHg 100%
    13:00 +3°C° 0.5 mm 4 mps 739 mmHg 100%
    14:00 +3°C° 0.3 mm 4 mps 739 mmHg 100%
    15:00 +4°C° 0 mm 4 mps 739 mmHg 98%
    16:00 +4°C° 0 mm 3 mps 738 mmHg 97%
    17:00 +4°C° 0 mm 3 mps 738 mmHg 97%
    18:00 +5°C° 0 mm 2 mps 738 mmHg 98%
    19:00 +4°C° 0 mm 3 mps 738 mmHg 100%
    20:00 +5°C° 0 mm 2 mps 739 mmHg 100%
    21:00 +5°C° 0 mm 2 mps 739 mmHg 100%
    22:00 +4°C° 0 mm 3 mps 738 mmHg 100%
    23:00 +5°C° 0.1 mm 2 mps 738 mmHg 100%

    Tomorrow, 10 December, Tuesday

    Time Temperature Precipitation Wind Pressure Humidity
    00:00 +5°C° 0.2 mm 2 mps 739 mmHg 100%
    01:00 +6°C° 0.3 mm 1 mps 739 mmHg 100%
    02:00 +6°C° 0.3 mm 1 mps 739 mmHg 100%
    03:00 +6°C° 0.2 mm 1 mps 739 mmHg 100%
    04:00 +6°C° 0.1 mm 1 mps 739 mmHg 100%
    05:00 +6°C° 0.1 mm 1 mps 739 mmHg 100%
    06:00 +6°C° 0.2 mm 1 mps 739 mmHg 100%
    07:00 +6°C° 0.3 mm 1 mps 740 mmHg 100%
    08:00 +6°C° 0 mm 1 mps 740 mmHg 100%
    09:00 +7°C° 0 mm 1 mps 741 mmHg 100%
    10:00 +7°C° 0 mm 1 mps 741 mmHg 97%
    11:00 +6°C° 0 mm 0 mps 741 mmHg 96%
    12:00 +8°C° 0 mm 1 mps 742 mmHg 94%
    13:00 +8°C° 0 mm 2 mps 742 mmHg 95%
    14:00 +8°C° 0 mm 3 mps 742 mmHg 94%
    15:00 +8°C° 0 mm 3 mps 742 mmHg 90%
    16:00 +6°C° 0 mm 5 mps 742 mmHg 87%
    17:00 +3°C° 0 mm 7 mps 742 mmHg 83%
    18:00 +2°C° 0 mm 8 mps 743 mmHg 82%
    19:00 +1°C° 0 mm 8 mps 743 mmHg 80%
    20:00 +1°C° 0 mm 8 mps 744 mmHg 81%
    21:00 0°C° 0 mm 9 mps 744 mmHg 80%
    22:00 0°C° 0 mm 8 mps 744 mmHg 80%
    23:00 0°C° 0 mm 7 mps 744 mmHg 80%

    Day after tomorrow, 11 December, Wednesday

    Time Temperature Precipitation Wind Pressure Humidity
    00:00 -1°C° 0 mm 6 mps 745 mmHg 81%
    01:00 0°C° 0 mm 5 mps 745 mmHg 83%
    02:00 0°C° 0 mm 5 mps 745 mmHg 83%
    03:00 0°C° 0 mm 4 mps 745 mmHg 83%
    04:00 +2°C° 0 mm 2 mps 744 mmHg 87%
    05:00 +2°C° 0 mm 2 mps 744 mmHg 88%
    06:00 +1°C° 0 mm 2 mps 744 mmHg 89%
    07:00 +1°C° 0 mm 2 mps 744 mmHg 88%
    08:00 +2°C° 0 mm 1 mps 745 mmHg 87%
    09:00 +2°C° 0 mm 1 mps 744 mmHg 88%
    10:00 +3°C° 0 mm 1 mps 744 mmHg 88%
    11:00 +4°C° 0 mm 1 mps 744 mmHg 90%
    12:00 +4°C° 0 mm 1 mps 744 mmHg 93%
    13:00 +4°C° 0.1 mm 1 mps 743 mmHg 98%
    14:00 +3°C° 0.3 mm 2 mps 743 mmHg 100%
    15:00 +3°C° 0.3 mm 2 mps 743 mmHg 100%
    16:00 +3°C° 0.2 mm 2 mps 742 mmHg 100%
    17:00 +3°C° 0.1 mm 2 mps 742 mmHg 100%
    18:00 +3°C° 0.1 mm 2 mps 742 mmHg 100%
    19:00 +3°C° 0.1 mm 2 mps 742 mmHg 100%
    20:00 +3°C° 0.4 mm 2 mps 742 mmHg 100%
    21:00 +3°C° 0.2 mm 2 mps 742 mmHg 100%
    22:00 +4°C° 0.2 mm 1 mps 742 mmHg 100%
    23:00 +3°C° 0.1 mm 2 mps 742 mmHg 100%

    12 December, Thursday

    Time Temperature Precipitation Wind Pressure Humidity
    00:00 +1°C° 0.1 mm 3 mps 742 mmHg 100%
    01:00 +2°C° 0 mm 1 mps 742 mmHg 99%
    02:00 +2°C° 0 mm 1 mps 742 mmHg 99%
    03:00 +2°C° 0.2 mm 1 mps 742 mmHg 100%
    04:00 +2°C° 0.1 mm 1 mps 741 mmHg 100%
    05:00 +2°C° 0.1 mm 1 mps 741 mmHg 100%
    06:00 +3°C° 0 mm 1 mps 741 mmHg 100%
    07:00 +2°C° 0 mm 2 mps 741 mmHg 100%
    08:00 +2°C° 0 mm 2 mps 741 mmHg 100%
    09:00 +3°C° 0 mm 1 mps 741 mmHg 100%
    10:00 +3°C° 0.2 mm 1 mps 741 mmHg 100%
    11:00 +2°C° 0.2 mm 0 mps 740 mmHg 100%
    12:00 +2°C° 0 mm 0 mps 740 mmHg 100%
    13:00 +4°C° 0 mm 1 mps 740 mmHg 98%
    14:00 +3°C° 0 mm 2 mps 739 mmHg 98%
    15:00 +3°C° 0 mm 2 mps 739 mmHg 98%
    16:00 +4°C° 0 mm 1 mps 739 mmHg 98%
    17:00 +4°C° 0 mm 1 mps 738 mmHg 97%
    18:00 +5°C° 0 mm 1 mps 738 mmHg 96%
    19:00 +4°C° 0 mm 2 mps 738 mmHg 96%
    20:00 +4°C° 0 mm 2 mps 738 mmHg 97%
    21:00 +4°C° 0 mm 2 mps 738 mmHg 99%
    22:00 +4°C° 0.3 mm 2 mps 737 mmHg 100%
    23:00 +5°C° 0.8 mm 1 mps 737 mmHg 100%

    13 December, Friday

    Time Temperature Precipitation Wind Pressure Humidity
    00:00 +4°C° 1.2 mm 1 mps 737 mmHg 100%
    01:00 +4°C° 0.4 mm 1 mps 736 mmHg 100%
    02:00 +3°C° 0.2 mm 2 mps 736 mmHg 100%

    14 December, Saturday

    Time Temperature Precipitation Wind Pressure Humidity
    Show more